This is the latest recevied weather packets stored in our database for station/object N9CQS-13. If no packets are shown the sender has not sent any weather packets the latest 10 day(s).
| Time | Temp. | Humidity | Pressure | Rain* | Wind** | Luminosity | Snow |
|---|---|---|---|---|---|---|---|
| 1777404092 | 15.56° C | 69% | 1015.8 hPa | 0 mm | - | - | - |
| 1777403492 | 15.56° C | 67% | 1015.9 hPa | 0 mm | - | - | - |
| 1777402892 | 16.11° C | 68% | 1016 hPa | 0 mm | - | - | - |
| 1777402292 | 15° C | 70% | 1016.2 hPa | 0 mm | - | - | - |
| 1777401692 | 15° C | 70% | 1016.3 hPa | 0 mm | - | - | - |
| 1777401092 | 15° C | 70% | 1016.5 hPa | 0 mm | - | - | - |
| 1777400493 | 15° C | 70% | 1016.6 hPa | 0 mm | - | - | - |
| 1777399892 | 15° C | 70% | 1016.6 hPa | 0 mm | - | - | - |
| 1777399292 | 15° C | 69% | 1016.8 hPa | 0 mm | - | - | - |
| 1777398692 | 15° C | 71% | 1016.8 hPa | 0 mm | - | - | - |
| 1777398092 | 15° C | 70% | 1016.9 hPa | 0 mm | - | - | - |
| 1777397492 | 14.44° C | 71% | 1017.1 hPa | 0 mm | - | - | - |
| 1777396892 | 15° C | 71% | 1017 hPa | 0 mm | - | - | - |
| 1777396291 | 14.44° C | 72% | 1016.9 hPa | 0 mm | - | - | - |
| 1777395692 | 14.44° C | 72% | 1016.8 hPa | 0 mm | - | - | - |
| 1777395092 | 15° C | 71% | 1016.7 hPa | 0 mm | - | - | - |
| 1777394492 | 15° C | 71% | 1016.6 hPa | 0 mm | - | - | - |
| 1777393292 | 15° C | 70% | 1016 hPa | 0 mm | - | - | - |
| 1777392692 | 15° C | 69% | 1015.9 hPa | 0 mm | - | - | - |
| 1777392094 | 15° C | 69% | 1015.9 hPa | 0 mm | - | - | - |
| 1777391492 | 14.44° C | 70% | 1015.9 hPa | 0 mm | - | - | - |
| 1777390892 | 14.44° C | 70% | 1016.1 hPa | 0 mm | - | - | - |
| 1777390292 | 13.89° C | 72% | 1016.4 hPa | 0 mm | - | - | - |
| 1777389692 | 13.89° C | 73% | 1016.3 hPa | 0 mm | - | - | - |
| 1777389091 | 13.89° C | 73% | 1016.2 hPa | 0 mm | - | - | - |
* Rain latest hour (hover to see other rain measurements)
** Current wind speed in m/s (hover to see current wind gust speed)